FLOCK 4BE-14 (60517 NORAD) Tracking and Keplerian Element Data

This shows tracking and keplerian element data for the satellite.

Feedback or suggestion? Click here.




ElementValue
Catalog60517
NameFLOCK 4BE-14
Epoch Orbit865
Epoch Day286.79457431
Epoch Year2024
RAAN1.5244
Inclination97.4345
Eccentricity0.0005449
Argument of Perigee309.9218
Mean Anonmoly50.1538
Mean Motion15.206586
Decay Rate0.00020015
L11 60517U 24149BB 24286.79457431 .00020015 00000+0 91270-3 0 9990
L22 60517 97.4345 1.5244 0005449 309.9218 50.1538 15.20658600 8657



Live tracking and technical data element details for FLOCK 4BE-14 (NORAD 60517). FLOCK 4BE-14 can be tracked NOW for your location showing map with azimuth and elevation plus other details from your city location.







IsCatalogInMostPopularTable: catalog: 60517, numindb: 6
Update: records affected: 1



GetName: 60517 FLOCK 4BE-14

Hit Count: updated at: Wed, 04 Dec 2024 18:37:45 GMT